Flag for U.S.A. Weather past 2 weeks in New City, New York, U.S.A.

Now
75 °F

Scattered clouds.


Feels Like: 78 °F
Forecast: 60 / 83 °F
Wind: 8 mph from Northwest

Location: Westchester County Airport

Current Time: Jul 24, 2014 at 8:03:40 PM

Latest Report: Jul 24, 2014 at 6:56 PM


Visibility: 10 mi

Pressure: 29.84 "Hg

Humidity: 54%

Dew point: 57 °F

Location of New CityLocation

Historic Weather in New City — Graph

°F

New City temperature yesterday

Maximum temperature yesterday: 86 °F (at 1:56 PM)
Minimum temperature yesterday: 70 °F (at 5:56 AM)
Average temperature yesterday: 78 °F

Past Weeks' High & Low Weather Summary

 TemperatureHumidityPressure
High86 °F (Jul 23, 1:56 PM)100% (Jul 16, 1:58 AM)30.24 "Hg (Jul 16, 1:58 AM)
Low59 °F (Jul 18, 4:56 AM)36% (Jul 18, 3:56 PM)29.73 "Hg (Jul 15, 5:56 PM)
Average72 °F73%30.02 "Hg
* Reported Jul 9 6:56 PM — Jul 24 6:56 PM, New City, Weather by CustomWeather, © 2014

Note: Actual official high and low records may vary slightly from our data, if they occured in-between our weather recording intervals... More about our weather records

Advertising

New City weather history for previous 24 hours

 ConditionsComfort  
Time TempWeatherWind HumidityBarometerVisibility
6:56 PM
Jul 24
75 °FScattered clouds.8 mph54%29.84 "Hg10 mi
5:56 PM77 °FScattered clouds.12 mph47%29.83 "Hg10 mi
4:56 PM78 °FScattered clouds.10 mph45%29.83 "Hg10 mi
3:56 PM78 °FScattered clouds.10 mph46%29.84 "Hg10 mi
2:56 PM76 °FScattered clouds.12 mph50%29.84 "Hg10 mi
1:56 PM75 °FScattered clouds.13 mph54%29.86 "Hg10 mi
12:56 PM74 °FPassing clouds.14 mph60%29.86 "Hg10 mi
11:56 AM74 °FScattered clouds.14 mph62%29.86 "Hg10 mi
10:56 AM74 °FPartly sunny.12 mph64%29.86 "Hg10 mi
9:56 AM72 °FPartly sunny.13 mph68%29.85 "Hg10 mi
8:56 AM71 °FPartly sunny.15 mph73%29.84 "Hg10 mi
7:56 AM70 °FPartly sunny.10 mph81%29.83 "Hg10 mi
6:56 AM69 °FScattered clouds.8 mph87%29.82 "Hg10 mi
5:56 AM69 °FClear.9 mph87%29.80 "Hg10 mi
4:56 AM70 °FPassing clouds.13 mph87%29.80 "Hg10 mi
3:56 AM71 °FPassing clouds.9 mph87%29.78 "Hg10 mi
2:56 AM71 °FPassing clouds.8 mph90%29.78 "Hg10 mi
1:56 AM72 °FPassing clouds.9 mph91%29.78 "Hg9 mi
12:56 AM73 °FPassing clouds.8 mph88%29.78 "Hg10 mi
11:56 PM
Jul 23
74 °FPassing clouds.9 mph88%29.79 "Hg10 mi
10:56 PM74 °FPassing clouds.6 mph94%29.81 "Hg7 mi
9:56 PM74 °FLight rain. Passing clouds.7 mph94%29.82 "Hg7 mi
9:01 PM73 °FThunderstorms. Fog.No wind89%29.81 "Hg6 mi
Weather by CustomWeather, © 2014

See weather overviewHow to use our weather pages